[[{"header":{"parameterUnit":"m.s-1","parameterCategory":1,"la1":30.2991,"la2":30.254,"lo1":-89.0895,"lo2":-89.0444,"dy":0.0017,"dx":0.0017,"nx":28,"ny":28,"refTime":"2024-09-04T09:00:00:Z","depth":0,"parameterNumber":2,"parameterNumberName":"U-component_of_WINDS"},"data":[0,0,0,0,0,0,0,0,0,0,0,0,0,0,0,0,0,0,0,0,0,0,0,0,0,0,0,0,0,0,0,0,0,0,0,0,0,0,0,0,0,0,0,0,0,0,0,0,0,0,0,0,0,0,0,0,0,0,-4.676,-4.6761,0,-4.6867,-4.6868,-4.6869,-4.6734,-4.6729,-4.6725,-4.672,-4.6838,-4.6845,-4.6853,0,0,0,0,0,0,0,0,0,0,0,0,0,-4.6448,-4.6455,-4.676,-4.6761,-4.6763,-4.6866,-4.6868,-4.6869,-4.6735,-4.6729,-4.6723,-4.6718,-4.6835,-4.6844,-4.6853,0,0,0,0,0,0,0,0,0,0,0,0,0,-4.6572,-4.6457,-4.676,-4.6708,-4.6704,-4.6866,-4.6868,-4.687,-4.6737,-4.6729,-4.6722,-4.6715,-4.6832,-4.6843,-4.6855,-4.7075,0,0,-4.689,-4.6895,0,0,0,0,0,0,0,0,-4.6565,-4.6584,-4.6714,-4.6712,-4.6708,-4.6779,-4.6801,-4.6939,-4.6738,-4.6725,-4.672,-4.6711,-4.6825,-4.6837,-4.6873,-4.708,-4.7085,-4.6891,-4.6898,-4.6903,-4.6907,0,0,0,0,0,0,0,-4.6557,-4.6579,-4.6802,-4.6716,-4.6713,-4.6682,-4.6691,-4.6826,-4.6815,-4.6725,-4.6716,-4.673,-4.6822,-4.6862,-4.6875,-4.7087,-4.6891,-4.6901,-4.6908,-4.6913,-4.7482,-4.749,0,0,0,0,0,0,-4.6553,-4.6572,-4.6799,-4.6805,-4.6617,-4.6694,-4.6704,-4.6764,-4.6813,-4.6814,-4.6736,-4.6723,-4.6846,-4.6861,-4.6878,-4.7141,-4.6903,-4.6914,-4.6921,-4.7474,-4.7484,-4.7493,0,0,0,0,0,0,-4.6547,-4.6575,-4.6795,-4.6686,-4.6712,-4.6707,-4.6775,-4.677,-4.681,-4.6821,-4.6819,-4.6779,-4.6841,-4.6862,-4.7027,-4.7143,-4.6919,-4.693,-4.7464,-4.7477,-4.7488,-4.7667,0,0,0,0,0,0,-4.6539,-4.6573,-4.6655,-4.6689,-4.6718,-4.694,-4.6782,-4.6778,-4.683,-4.6814,-4.6861,-4.6862,-4.6837,-4.701,-4.7038,-4.7155,-4.6939,-4.7454,-4.747,-4.7485,-4.7651,-4.7684,-4.7712,0,0,0,0,0,-4.6528,-4.6703,-4.666,-4.6688,-4.682,-4.6946,-4.6963,-4.6928,-4.684,-4.6923,-4.693,-4.686,-4.7125,-4.7028,-4.7059,-4.7181,-4.7447,-4.7466,-4.7483,-4.7637,-4.7677,-4.7711,0,0,0,0,0,0,-4.6686,-4.6706,-4.6659,-4.6849,-4.6897,-4.6923,-4.7028,-4.6972,-4.7047,-4.703,-4.6985,-4.6997,-4.7173,-4.7193,-4.7084,-4.7397,-4.7272,-4.7297,-4.7378,-4.7417,-4.7447,-4.744,-4.6949,0,0,0,0,0,-4.6742,-4.684,-4.6854,-4.7021,-4.7047,-4.7034,-4.7087,-4.7056,-4.7104,-4.7124,-4.7143,-4.7196,-4.729,-4.7354,-4.7442,-4.7652,-4.7662,-4.7751,-4.7782,-4.7807,-4.7831,-4.7945,-4.7986,-4.7553,-4.7553,-4.7553,0,0,-4.6861,-4.6884,-4.695,-4.7053,-4.7086,-4.7192,-4.7051,-4.7169,-4.7247,-4.7143,-4.7299,-4.7315,-4.7371,-4.756,-4.7644,-4.7582,-4.7952,-4.783,-4.785,-4.786,-4.7968,-4.8009,-4.8046,-4.7566,-4.7563,-4.7561,0,0,-4.7132,-4.7158,-4.73,-4.7336,-4.7386,-4.7376,-4.741,-4.7445,-4.7451,-4.7606,-4.7531,-4.7625,-4.7789,-4.7831,-4.7875,-4.8161,-4.8101,-4.8191,-4.8353,-4.8465,-4.85,-4.853,-4.8635,-4.8672,-4.8214,-4.8214,-4.8215,0,-4.7274,-4.7427,-4.7381,-4.7504,-4.7553,-4.746,-4.7606,-4.7643,-4.7721,-4.7759,-4.7686,-4.789,-4.7921,-4.812,-4.8189,-4.8227,-4.8267,-4.8187,-4.8498,-4.8527,-4.8555,-4.8655,-4.8694,-4.8225,-4.8224,-4.8223,-4.8222,0,-4.76,-4.7708,-4.7817,-4.7893,-4.7953,-4.8087,-4.8064,-4.8132,-4.8095,-4.8094,-4.8255,-4.8287,-4.8381,-4.8425,-4.8391,-4.862,-4.858,-4.8504,-4.8378,-4.8608,-4.8701,-4.8738,-4.8241,-4.8237,-4.8234,-4.8231,0,0,-4.7976,-4.8022,-4.8064,-4.8097,-4.8146,-4.823,-4.836,-4.8448,-4.8509,-4.8565,-4.8676,-4.8816,-4.8746,-4.8795,-4.8765,-4.8864,-4.9092,-4.8775,-4.8776,-4.8836,-4.9349,-4.9408,-4.9453,-4.905,-4.9057,-4.9063,-4.9345,0,-4.8248,-4.8471,-4.8434,-4.8651,-4.8751,-4.8664,-4.8778,-4.8822,-4.8824,-4.8911,-4.8914,-4.9015,-4.8913,-4.8942,-4.9035,-4.9044,-4.9195,-4.9023,-4.9156,-4.9162,-4.9148,-4.9501,-4.9564,-4.9828,-4.9381,-4.9387,-4.9391,0,-4.8597,-4.8664,-4.8891,-4.8924,-4.8964,-4.9067,-4.9146,-4.9229,-4.9278,-4.9273,-4.9328,-4.9279,-4.9413,-4.9282,-4.9466,-4.935,-4.9402,-4.9415,-4.9424,-4.9438,-4.9293,-4.9527,-4.9912,-4.9953,-4.9448,-4.9443,-4.9439,0,-4.8851,-4.8998,-4.9153,-4.9184,-4.9226,-4.9301,-4.9322,-4.9363,-4.9419,-4.9488,-4.9525,-4.961,-4.9658,-4.9726,-4.9704,-4.961,-4.9895,-4.9761,-4.9897,-4.9898,-4.9963,-4.996,-5.0365,-4.9992,-4.9992,-4.9991,-4.999,0,-4.9161,-4.9304,-4.9268,-4.9364,-4.9522,-4.9478,-4.9637,-4.9648,-4.9685,-4.9784,-4.9713,-4.9808,-4.9771,-4.9864,-4.9847,-5.0004,-5.0026,-5.0028,-5.0022,-5.0036,-5.0036,-5.0072,-5.0054,-5.0001,-4.9999,-4.9997,-4.9995,0,-4.9474,-4.9454,-4.9618,-4.9643,-4.9653,-4.9769,-4.9792,-4.9883,-4.9878,-5.0004,-5.0032,-5.0026,-5.0132,-5.0115,-5.0233,-5.0222,-5.0419,-5.039,-5.0402,-5.0397,-5.0535,-5.0523,-5.0979,-5.1038,-5.0625,-5.0628,-5.0632,0,-4.9674,-4.9782,-4.9818,-4.9877,-4.9904,-5.0001,-5.0057,-5.0018,-5.008,-5.0143,-5.0228,-5.0326,-5.0404,-5.0578,-5.0587,-5.0677,-5.0652,-5.0805,-5.0665,-5.0676,-5.0658,-5.0653,-5.0665,-5.0834,-5.0839,-5.0842,-5.0845,0,-5.0033,-5.0018,-5.01,-5.018,-5.0248,-5.0309,-5.0364,-5.0417,-5.0383,-5.0457,-5.0563,-5.0623,-5.0742,-5.0843,-5.0928,-5.0953,-5.0897,-5.0889,-5.0926,-5.0942,-5.0946,-5.0949,-5.0481,-5.0879,-5.0876,-5.0874,-5.0872,-5.087,-5.0298,-5.039,-5.043,-5.0524,-5.056,-5.0613,-5.07,-5.0705,-5.0792,-5.0884,-5.0856,-5.0978,-5.1025,-5.1132,-5.1166,-5.1263,-5.1207,-5.1259,-5.1273,-5.1288,-5.1306,-5.0928,-5.1278,-5.1277,-5.1276,-5.1275,-5.1275,0,-5.0656,-5.0676,-5.0763,-5.084,-5.0915,-5.085,-5.0907,-5.0975,-5.1082,-5.1129,-5.1206,-5.1329,-5.1426,-5.1441,-5.1534,-5.1609,-5.1585,-5.1635,-5.1631,-5.1638,-5.1349,-5.1309,-5.1652,-5.1652,-5.1652,-5.1652,-5.1652,-5.1652,-5.0851,-5.1003,-5.0993,-5.1164,-5.1184,-5.13,-5.1339,-5.1388,-5.1426,-5.1565,-5.1644,-5.1652,-5.1688,-5.1782,-5.187,-5.1872,-5.1911,-5.1972,-5.1965,-5.1695,-5.1658,-5.1622,-5.1584,-5.198,-5.198,-5.2245,-5.2248,-5.225]},{"header":{"parameterUnit":"m.s-1","parameterCategory":1,"la1":30.2991,"la2":30.254,"lo1":-89.0895,"lo2":-89.0444,"dy":0.0017,"dx":0.0017,"nx":28,"ny":28,"refTime":"2024-09-04T09:00:00:Z","depth":0,"parameterNumber":3,"parameterNumberName":"V-component_of_WINDS"},"data":[0,0,0,0,0,0,0,0,0,0,0,0,0,0,0,0,0,0,0,0,0,0,0,0,0,0,0,0,0,0,0,0,0,0,0,0,0,0,0,0,0,0,0,0,0,0,0,0,0,0,0,0,0,0,0,0,0,0,-3.3773,-3.3773,0,-3.3765,-3.3765,-3.3765,-3.3736,-3.3735,-3.3735,-3.3734,-3.3724,-3.3724,-3.3725,0,0,0,0,0,0,0,0,0,0,0,0,0,-3.3762,-3.3762,-3.3773,-3.3773,-3.3773,-3.3765,-3.3765,-3.3765,-3.3736,-3.3735,-3.3735,-3.3734,-3.3724,-3.3724,-3.3725,0,0,0,0,0,0,0,0,0,0,0,0,0,-3.3761,-3.3762,-3.3773,-3.3758,-3.3756,-3.3765,-3.3765,-3.3765,-3.3736,-3.3735,-3.3734,-3.3733,-3.3724,-3.3724,-3.3725,-3.3747,0,0,-3.3726,-3.3726,0,0,0,0,0,0,0,0,-3.3761,-3.3762,-3.376,-3.3759,-3.3757,-3.3751,-3.3757,-3.3759,-3.3737,-3.3744,-3.3734,-3.3733,-3.3733,-3.3733,-3.3734,-3.3747,-3.3746,-3.3726,-3.3726,-3.3727,-3.3727,0,0,0,0,0,0,0,-3.3761,-3.3762,-3.377,-3.376,-3.3759,-3.375,-3.3749,-3.3757,-3.3744,-3.3743,-3.3741,-3.3741,-3.3732,-3.3733,-3.3733,-3.3746,-3.3726,-3.3727,-3.3727,-3.3727,-3.3774,-3.3775,0,0,0,0,0,0,-3.3764,-3.3762,-3.377,-3.377,-3.3757,-3.3751,-3.375,-3.3754,-3.3744,-3.3742,-3.3741,-3.3739,-3.3733,-3.3733,-3.3733,-3.3756,-3.3727,-3.3727,-3.3727,-3.3773,-3.3774,-3.3775,0,0,0,0,0,0,-3.3764,-3.3765,-3.3771,-3.3765,-3.3766,-3.3753,-3.3757,-3.3754,-3.3755,-3.3743,-3.374,-3.3745,-3.3732,-3.3732,-3.3743,-3.3755,-3.3727,-3.3728,-3.3772,-3.3773,-3.3775,-3.3805,0,0,0,0,0,0,-3.3764,-3.3765,-3.3774,-3.3766,-3.3766,-3.3782,-3.3758,-3.3755,-3.3756,-3.3753,-3.3745,-3.3743,-3.3731,-3.3743,-3.3744,-3.3756,-3.3728,-3.3771,-3.3773,-3.3774,-3.3803,-3.3807,-3.3811,0,0,0,0,0,-3.3763,-3.3783,-3.3775,-3.3776,-3.3777,-3.3783,-3.3783,-3.377,-3.3757,-3.3765,-3.3757,-3.3743,-3.3754,-3.3744,-3.3745,-3.3757,-3.377,-3.3772,-3.3774,-3.3801,-3.3806,-3.3811,0,0,0,0,0,0,-3.3794,-3.3782,-3.3773,-3.3791,-3.3788,-3.3778,-3.3789,-3.3776,-3.3777,-3.3774,-3.3757,-3.3756,-3.3769,-3.3764,-3.3753,-3.3777,-3.3759,-3.3762,-3.3779,-3.3784,-3.3789,-3.3789,-3.3729,0,0,0,0,0,-3.3802,-3.3809,-3.3798,-3.3815,-3.3814,-3.3802,-3.3804,-3.3794,-3.379,-3.3789,-3.3782,-3.3778,-3.378,-3.3782,-3.3784,-3.3802,-3.3799,-3.3811,-3.3815,-3.3819,-3.382,-3.3827,-3.3831,-3.3782,-3.3782,-3.3782,0,0,-3.3821,-3.3815,-3.382,-3.3821,-3.3818,-3.3823,-3.3801,-3.3809,-3.3812,-3.379,-3.3799,-3.3794,-3.3789,-3.3803,-3.3809,-3.3799,-3.3833,-3.3821,-3.3824,-3.3824,-3.383,-3.3834,-3.3838,-3.3784,-3.3783,-3.3783,0,0,-3.3856,-3.3854,-3.3866,-3.3863,-3.3859,-3.385,-3.3853,-3.3845,-3.384,-3.385,-3.3832,-3.3836,-3.3841,-3.3837,-3.3836,-3.3869,-3.3855,-3.387,-3.3891,-3.3897,-3.3901,-3.3905,-3.3914,-3.3918,-3.3872,-3.3872,-3.3872,0,-3.3879,-3.3888,-3.3874,-3.3882,-3.3882,-3.3862,-3.3874,-3.3872,-3.3868,-3.3868,-3.3858,-3.3862,-3.3858,-3.3869,-3.3877,-3.3877,-3.3879,-3.387,-3.3902,-3.3905,-3.3908,-3.3917,-3.3921,-3.3874,-3.3874,-3.3873,-3.3873,0,-3.3915,-3.3921,-3.3932,-3.3928,-3.393,-3.394,-3.3926,-3.3929,-3.3919,-3.391,-3.3919,-3.3913,-3.3911,-3.3914,-3.3904,-3.3923,-3.3918,-3.3905,-3.3887,-3.3915,-3.3922,-3.3926,-3.3876,-3.3876,-3.3875,-3.3875,0,0,-3.397,-3.3958,-3.3961,-3.3959,-3.3951,-3.3955,-3.3964,-3.3963,-3.3964,-3.3962,-3.3967,-3.3971,-3.3959,-3.3958,-3.3947,-3.3953,-3.3976,-3.394,-3.3939,-3.3945,-3.3995,-3.4003,-3.4007,-3.3968,-3.3968,-3.3969,-3.3994,0,-3.4002,-3.4016,-3.4003,-3.4018,-3.4023,-3.4003,-3.401,-3.4005,-3.3998,-3.3999,-3.3991,-3.3993,-3.3978,-3.3977,-3.3982,-3.3973,-3.3986,-3.3971,-3.397,-3.397,-3.3971,-3.4011,-3.4021,-3.4045,-3.3997,-3.3998,-3.3998,0,-3.4041,-3.404,-3.4056,-3.4046,-3.4047,-3.4054,-3.4051,-3.4053,-3.4047,-3.4041,-3.4039,-3.4026,-3.4031,-3.4014,-3.4021,-3.4011,-3.401,-3.4005,-3.4006,-3.4004,-3.3985,-3.4009,-3.4053,-3.4056,-3.4004,-3.4003,-3.4003,0,-3.4077,-3.4079,-3.4089,-3.4087,-3.4076,-3.4081,-3.4076,-3.4069,-3.4069,-3.4066,-3.4065,-3.4063,-3.4062,-3.406,-3.4046,-3.4035,-3.4053,-3.4036,-3.4046,-3.4047,-3.405,-3.405,-3.4093,-3.4053,-3.4053,-3.4052,-3.4052,0,-3.4113,-3.4123,-3.4104,-3.411,-3.412,-3.4104,-3.4115,-3.4108,-3.4101,-3.4104,-3.4088,-3.409,-3.4073,-3.4073,-3.4062,-3.4068,-3.4068,-3.4062,-3.4058,-3.4062,-3.4063,-3.406,-3.4058,-3.4053,-3.4053,-3.4053,-3.4053,0,-3.4154,-3.4142,-3.415,-3.4139,-3.4136,-3.4144,-3.4133,-3.4137,-3.4128,-3.4132,-3.4132,-3.4117,-3.4117,-3.4103,-3.41,-3.4092,-3.4102,-3.4096,-3.4104,-3.4101,-3.4112,-3.411,-3.4153,-3.4157,-3.4117,-3.4117,-3.4117,0,-3.4177,-3.4184,-3.4173,-3.4174,-3.417,-3.4172,-3.4171,-3.4156,-3.4155,-3.4148,-3.4152,-3.415,-3.4148,-3.4148,-3.4136,-3.4133,-3.4126,-3.4141,-3.4125,-3.4128,-3.4124,-3.4123,-3.4122,-3.4144,-3.4145,-3.4145,-3.4146,0,-3.4218,-3.4211,-3.4211,-3.4209,-3.4208,-3.4206,-3.4202,-3.4203,-3.4186,-3.4186,-3.4186,-3.4184,-3.418,-3.4177,-3.4172,-3.4166,-3.4152,-3.4151,-3.4153,-3.4156,-3.4159,-3.4155,-3.4111,-3.415,-3.4149,-3.4149,-3.4149,-3.4148,-3.4249,-3.4254,-3.4246,-3.4246,-3.4241,-3.4238,-3.424,-3.4231,-3.4231,-3.4226,-3.4217,-3.4217,-3.4209,-3.42,-3.4195,-3.4194,-3.4186,-3.419,-3.419,-3.4191,-3.4192,-3.4161,-3.4193,-3.4193,-3.4193,-3.4193,-3.4193,0,-3.4288,-3.4282,-3.4282,-3.4276,-3.4276,-3.4264,-3.4258,-3.4258,-3.4259,-3.4253,-3.425,-3.4248,-3.4246,-3.4234,-3.4229,-3.423,-3.4224,-3.423,-3.4228,-3.4227,-3.42,-3.4198,-3.4235,-3.4235,-3.4235,-3.4235,-3.4235,-3.4235,-3.4308,-3.4314,-3.4306,-3.431,-3.4303,-3.4304,-3.4301,-3.4297,-3.4291,-3.429,-3.4288,-3.428,-3.4271,-3.4265,-3.4262,-3.4258,-3.4256,-3.4264,-3.4258,-3.4233,-3.4229,-3.4225,-3.4223,-3.4264,-3.4264,-3.4284,-3.4284,-3.4284]}]]